Weather Roundup
Issued by NWS

Home | Current Version | Previous Version | Graphics & Text | Print | Product List | Glossary Off
Versions: 1 2 3 4 5 6 7 8 9 10 11 12 13 14 15 16 17 18 19 20 21 22 23 24 25 26 27 28 29 30 31 32 33 34 35 36 37 38 39 40 41 42 43 44 45 46 47 48 49 50

000
NZUS93 KARX 270759
HRRWXR

CURRENT HOURLY OBSERVATIONS ACROSS
MUCH OF THE UPPER MISSISSIPPI VALLEY
NATIONAL WEATHER SERVICE LA CROSSE WI
300 AM CDT THU JUL 27 2017


...SOUTHEAST MINNESOTA...


CITY           SKY/WX    TMP DP  RH WIND       PRES   REMARKS
ROCHESTER      CLEAR     63  62  97 NW7       30.03F
ROCHESTER/MAYO FAIR      66  65  96 NW3       30.03F
WINONA         CLOUDY    66  64  94 NW3       30.00S FOG
AUSTIN         CLEAR     63  61  94 CALM      30.03F
ALBERT LEA     CLEAR     63  63 100 CALM      30.04F
DODGE CENTER   CLEAR     63  61  94 NW3       30.04F
PRESTON        CLEAR     64  60  87 N5        30.03S
OWATONNA       CLEAR     61  59  94 CALM      30.05S FOG
FARIBAULT      CLEAR     61  61 100 CALM      30.05S
$$

...ELSEWHERE IN MINNESOTA...


CITY           SKY/WX    TMP DP  RH WIND       PRES   REMARKS
MINNEAPOLIS    CLEAR     69  62  78 N6        30.04S
INTNL FALLS    CLEAR     53  52  96 W3        30.07R FOG
DULUTH         CLEAR     59  57  93 CALM      30.07R
RED WING       CLEAR     63  61  94 CALM      30.02R
REDWOOD FALLS  CLEAR     66  61  84 N6        30.07S
MANKATO        CLEAR     64  61  90 CALM      30.06S
WORTHINGTON    CLEAR     60  58  92 N6        30.10R
FAIRMONT       CLEAR     63  61  93 N6        30.06S
$$

...SOUTHWEST WISCONSIN...


CITY           SKY/WX    TMP DP  RH WIND       PRES   REMARKS
LA CROSSE      CLEAR     70  68  93 NW6       29.98F
PRAIRIE DU CHI CLOUDY    72  70  93 CALM      29.96F
BOSCOBEL       FOG       69  68  96 CALM      29.96S VSB 1/4
LONE ROCK      PTCLDY    67  67 100 CALM      29.95F FOG
PLATTEVILLE    CLEAR     70  70 100 NE5       29.95F
FORT MC COY    FOG       61  61 100 CALM      29.99F VSB 1/4
CAMP DOUGLAS   CLEAR     64  64 100 W5        29.98S FOG
MAUSTON-NEW LI SUNNY     67  67  99 NW3       29.97F FOG
VIROQUA        FAIR      68  68 100 CALM      30.00F
WIS DELLS      FOG       68  66  96 CALM      29.97S VSB 1/4
$$

...ELSEWHERE IN WISCONSIN...


CITY           SKY/WX    TMP DP  RH WIND       PRES   REMARKS
MILWAUKEE      CLOUDY    72  70  93 NE6       29.93F
MADISON        PTCLDY    68  68 100 N6        29.94S FOG
GREEN BAY      PTCLDY    68  68 100 N8        29.96S
EAU CLAIRE     FOG       60  59  96 CALM      30.01S VSB 1/2
BLACK RVR FLS  FOG       56  56 100 CALM      29.99S VSB<1/4
MEDFORD        FOG       56  56  99 CALM      30.03S VSB 1
WAUSAU         CLEAR     61  61 100 CALM      30.00S
WIS RAPIDS     CLEAR     63  63 100 NE7       30.00S
MARSHFIELD     CLEAR     64  59  83 N6        30.00F
RICE LAKE      FOG       59  59  97 CALM      30.05F VSB 1/2
$$

...NORTHEAST IOWA...


CITY           SKY/WX    TMP DP  RH WIND       PRES   REMARKS
WATERLOO       MOCLDY    71  69  93 N8        29.96F
DUBUQUE          N/A    N/A N/A N/A MISG      29.96F
DECORAH        PTCLDY    70  68  94 N5        29.99S
MASON CITY     NOT AVBL
CHARLES CITY   CLEAR     66  66 100 N6        30.01S
OELWEIN        CLOUDY    70  70 100 N7        29.99S
$$

...ELSEWHERE IN IOWA...


CITY           SKY/WX    TMP DP  RH WIND       PRES   REMARKS
DES MOINES     MOCLDY    72  69  90 N6        29.97S
IOWA CITY      CLOUDY    76  70  82 N8        29.94F
FORT DODGE     CLEAR     66  63  88 N6        30.04S
MARSHALLTOWN   MOCLDY    71  69  93 N5        29.97F
CEDAR RAPIDS   NOT AVBL
$$

...NORTHERN ILLINOIS...


CITY           SKY/WX    TMP DP  RH WIND       PRES   REMARKS
CHICAGO-OHARE  CLOUDY    74  70  87 W5        29.89F
CHICAGO-MIDWAY CLOUDY    75  73  93 S6        29.90F FOG
MOLINE         MOCLDY    74  70  87 NW3       29.91F
ROCKFORD       CLOUDY    73  70  90 CALM      29.93F
PEORIA         CLOUDY    73  73 100 CALM      29.92S
$$

NOTE: "FAIR" INDICATES FEW OR NO CLOUDS BELOW 12,000 FEET WITH NO
SIGNIFICANT WEATHER AND/OR OBSTRUCTIONS TO VISIBILITY. WIND
SPEEDS ARE IN MILES-PER-HOUR.




USA.gov is the U.S. government's official web portal to all federal, state and local government web resources and services.